RH
29 28 27 26 25 25 24 24 24 23 23 23 23 22 22 23 24 24 24 24 24 23 23 23 23 22 21 21 19 16 13 12 11 11 12 13 14 16 18 18 19 21 21 18 18 18 17 12 5 4 3 2 0 0 0 -1 1 0 -1 0 0 3 16 21 9 24 36 27 33 34 28 23 22 29 28 25 19 10 9 11 14 13 12 12 10 11 11 11
31 30 29 28 27 27 26 26 25 25 24 24 23 23 23 23 24 24 25 24 24 24 23 23 23 23 22 21 21 19 16 13 12 12 11 12 12 14 16 18 18 19 21 20 18 18 18 15 8 5 3 4 2 1 1 0 0 -1 1 0 -1 1 7 14 13 16 23 33 41 38 34 22 16 19 14 15 11 7 6 5 10 10 6 9 6 3 4 5
30 31 31 30 29 28 27 27 27 26 26 25 25 24 24 23 24 24 25 25 24 24 24 24 23 23 23 22 21 20 18 15 14 13 12 12 12 13 14 16 18 18 20 21 19 17 19 17 11 6 5 4 3 3 2 1 1 -1 0 -1 0 2 3 7 10 12 16 24 28 30 27 11 10 7 5 20 16 12 17 12 23 26 6 2 2 -1 1 2
28 30 31 32 32 30 29 28 28 28 27 26 26 26 25 25 25 24 24 24 24 24 24 24 23 23 23 23 22 21 20 18 16 15 14 13 12 12 12 14 16 18 18 19 21 18 17 19 15 8 5 5 4 4 3 3 2 1 1 0 0 0 3 6 8 11 11 14 17 23 19 4 9 9 24 60 52 26 18 16 34 46 23 2 3 1 1 2
26 27 28 30 31 32 31 29 28 29 29 28 27 27 27 27 26 26 25 24 24 24 24 24 23 23 23 23 22 21 21 19 18 16 16 15 14 13 12 13 14 17 18 18 20 20 17 18 18 12 6 5 4 3 3 3 2 2 2 2 2 1 3 4 8 12 10 12 13 18 18 8 21 39 58 85 88 54 16 6 16 34 30 3 0 2 0 1
22 24 25 27 28 30 31 31 30 28 29 30 30 29 28 28 28 27 27 26 25 24 24 24 23 23 23 23 22 22 21 21 19 18 17 16 16 15 13 12 13 15 17 18 19 20 20 17 18 16 9 5 5 4 3 3 3 2 2 2 3 3 5 5 7 10 11 14 11 13 15 8 23 57 81 88 96 74 24 10 8 17 28 6 -1 2 0 3
19 21 22 24 25 26 27 29 31 30 28 28 30 31 30 30 30 29 29 27 26 25 24 24 24 23 23 23 22 22 22 21 20 19 18 17 17 16 15 13 12 13 16 18 19 19 20 18 18 18 13 7 4 5 4 3 3 2 3 2 2 2 4 6 7 8 10 12 10 11 7 5 14 33 60 65 63 49 15 15 10 5 19 6 -1 0 -2 3
17 17 19 20 22 23 24 24 26 28 28 27 28 29 30 32 32 31 30 29 28 27 25 24 24 24 23 23 23 22 22 22 22 21 19 18 17 17 16 15 13 13 14 17 19 19 20 19 18 18 17 12 6 6 4 4 3 3 3 2 2 1 1 2 3 5 7 7 9 9 0 12 36 31 30 31 27 21 5 16 14 1 9 1 -2 7 8 5
18 17 17 17 19 20 22 23 23 23 25 26 27 28 28 29 31 32 31 31 29 28 27 25 24 24 24 24 24 23 22 22 22 22 21 19 18 18 17 16 15 13 13 15 18 19 19 20 19 18 19 16 10 6 5 5 3 3 4 2 3 4 3 1 0 0 1 3 3 6 -1 11 43 36 23 34 45 41 20 16 12 2 6 2 1 22 28 13
20 19 18 17 17 17 19 21 22 22 21 22 24 26 27 27 29 31 32 31 30 29 28 27 25 25 24 24 24 23 23 22 22 22 22 21 20 19 18 17 16 15 13 13 17 19 19 20 20 19 19 19 15 9 6 5 5 5 4 2 3 5 8 7 7 3 0 1 -1 1 0 4 26 31 31 42 54 66 55 35 22 9 7 2 0 15 20 7
20 19 19 19 17 16 16 18 20 21 21 21 21 23 24 25 26 28 30 30 30 30 29 28 26 25 25 25 24 24 24 23 23 22 23 22 21 20 19 19 18 16 15 13 14 17 20 19 20 20 19 20 19 14 8 5 5 5 5 4 3 4 8 11 14 14 5 3 3 1 -1 0 11 27 45 42 33 44 48 46 40 25 16 8 2 9 12 15
19 19 19 19 19 18 16 16 17 19 20 21 21 21 21 22 23 26 27 27 28 29 29 28 27 26 25 25 24 24 24 23 23 23 23 22 22 22 20 20 20 18 16 14 13 15 19 20 20 21 21 20 20 19 13 7 6 6 6 5 4 5 7 8 12 21 22 15 9 9 13 14 11 15 25 23 16 16 22 43 52 49 46 24 11 12 10 22
18 19 18 18 18 19 18 17 16 16 17 19 20 21 21 21 21 22 24 25 26 27 28 28 26 26 25 25 25 24 24 24 23 23 23 23 22 22 21 20 20 21 18 16 14 13 17 20 20 21 22 21 20 21 18 11 7 7 7 6 6 6 7 7 8 22 41 37 20 13 17 19 18 14 6 7 17 18 16 23 31 49 54 26 16 19 9 14
17 17 18 18 17 17 18 18 17 16 15 16 17 19 21 22 21 21 21 22 23 25 27 27 26 26 25 25 24 25 25 24 24 23 23 23 22 22 22 21 20 21 21 18 16 14 14 18 21 21 22 23 21 21 21 17 12 8 8 8 8 8 10 12 10 16 34 39 31 30 29 20 17 13 6 10 21 26 25 20 22 34 36 25 17 12 11 14
17 17 17 18 17 17 17 17 18 18 16 16 15 16 18 21 22 22 21 21 21 22 24 26 27 25 25 25 24 25 24 24 24 23 23 23 22 22 21 21 21 20 21 20 18 15 14 15 20 21 22 24 23 22 21 21 18 12 9 8 9 11 12 16 17 18 27 34 34 37 37 27 21 16 11 14 21 34 40 33 32 31 28 31 21 11 15 13
18 18 17 17 17 17 16 16 17 18 18 17 16 15 15 17 20 22 23 22 21 21 22 24 25 25 25 25 24 24 24 24 24 24 24 23 22 22 22 21 21 20 20 21 20 17 14 14 16 20 22 23 24 24 23 22 21 19 14 10 9 11 13 16 19 22 28 32 30 29 28 26 25 20 14 14 20 35 47 39 34 41 37 21 20 34 30 16
18 18 18 17 17 17 17 16 16 16 18 18 17 16 15 15 17 19 22 23 23 22 21 22 22 24 25 23 23 24 25 24 25 24 24 23 23 22 22 22 21 21 20 20 21 19 17 14 14 18 21 22 23 24 24 23 23 23 20 15 11 10 13 16 18 21 25 27 28 27 25 24 21 19 17 14 16 28 51 54 37 41 44 19 16 35 35 29
18 18 18 18 18 17 17 17 16 15 16 18 18 17 16 15 15 17 19 21 23 23 22 21 21 22 22 23 24 25 26 24 24 24 24 24 23 22 22 22 21 21 21 20 21 20 19 16 13 15 18 21 23 24 25 25 24 24 23 21 17 12 11 13 16 19 22 22 25 28 27 25 20 19 18 15 17 18 29 40 28 18 19 11 7 9 20 30
20 19 18 18 18 18 17 17 17 16 16 16 18 18 18 17 16 15 16 18 21 22 23 22 21 21 22 22 23 24 24 24 24 23 23 24 23 23 22 22 22 21 21 20 20 20 20 19 15 14 15 19 22 23 24 25 26 25 24 24 22 19 16 13 13 15 18 20 20 25 29 28 23 20 18 15 17 15 15 24 20 7 2 5 6 -1 7 21
21 20 20 19 18 18 18 17 17 17 16 16 17 18 18 18 17 16 16 17 17 19 22 23 22 22 22 21 21 22 23 23 24 23 23 24 24 24 23 22 21 21 21 20 20 20 20 20 18 15 14 15 19 22 24 25 27 27 25 26 25 24 22 19 16 13 15 18 17 21 27 31 32 26 21 19 16 15 18 24 20 13 10 10 9 1 3 20
17 20 21 20 19 18 18 18 18 17 17 17 17 17 18 19 18 18 18 17 16 16 19 22 23 23 23 22 22 22 22 21 22 23 23 24 24 25 24 23 22 21 22 21 20 20 20 20 19 17 15 14 16 19 23 24 26 28 27 27 26 26 26 24 22 18 16 15 16 19 24 35 37 27 21 20 18 16 17 20 22 22 18 13 14 12 7 11
13 16 18 21 21 19 19 18 19 19 18 17 17 16 18 18 18 20 20 18 17 16 17 19 22 23 24 24 24 23 22 21 21 22 22 23 24 25 24 24 23 22 21 21 21 20 20 20 19 19 17 14 14 16 20 23 25 27 28 28 28 28 28 27 25 24 22 20 20 18 21 35 40 37 34 26 19 18 16 17 20 22 21 16 17 18 12 6
12 12 14 17 20 21 20 19 19 20 19 18 17 17 17 18 19 21 22 20 19 18 17 18 19 22 25 25 25 25 23 22 22 22 22 22 22 23 25 25 24 23 22 22 21 20 20 20 20 20 19 17 15 14 16 20 24 26 26 27 29 29 30 31 28 26 26 25 26 23 26 45 62 71 68 42 22 19 16 15 16 21 23 20 14 12 10 7
12 12 12 13 16 19 21 21 20 20 19 19 19 18 17 18 19 21 23 23 23 21 19 19 19 20 24 26 26 26 25 25 25 24 23 22 22 22 23 24 24 24 23 22 21 21 20 20 20 19 19 18 16 15 14 16 20 24 26 26 28 30 30 32 31 29 29 27 28 27 29 42 64 90 87 48 23 22 21 16 12 16 21 19 15 12 11 7
11 11 12 11 12 15 18 20 20 20 20 20 21 20 19 18 18 20 23 25 26 26 23 20 20 20 22 23 25 26 26 26 26 26 25 24 23 22 22 21 23 24 24 23 22 20 20 21 20 19 20 19 17 16 14 14 16 20 26 26 27 29 29 32 33 31 32 32 31 30 31 32 40 62 69 56 43 32 26 21 16 17 18 19 16 16 20 12
11 11 11 11 11 12 13 16 18 19 20 21 21 22 21 20 19 19 21 25 28 28 26 24 23 22 21 21 23 24 24 26 27 27 28 27 26 25 23 21 22 22 22 23 22 20 20 20 20 20 20 20 19 18 16 14 14 16 22 25 27 29 28 30 32 31 32 34 34 33 34 32 30 31 37 61 75 55 36 27 21 20 20 22 21 19 22 16
11 11 11 11 11 11 11 12 14 17 19 20 21 21 23 22 21 20 19 22 25 26 26 28 27 26 24 22 21 21 22 25 26 27 28 28 29 28 27 25 23 22 21 21 21 20 19 19 20 21 20 20 19 18 17 16 14 14 17 21 26 29 30 30 31 31 30 31 33 34 35 33 34 30 25 41 59 56 52 41 25 23 21 22 22 20 20 19
11 11 11 11 11 11 11 11 12 13 15 18 19 21 22 22 23 22 20 20 20 21 25 29 31 30 26 24 23 23 23 24 24 26 27 27 29 30 29 29 27 25 22 20 20 19 18 19 20 20 20 20 20 19 19 17 15 14 14 17 20 25 30 33 33 32 31 30 30 30 34 33 34 36 31 32 36 38 41 36 28 29 24 21 21 21 21 20
11 11 11 11 11 11 11 11 11 11 12 14 16 18 20 21 23 23 23 21 19 19 22 27 31 30 28 28 30 27 23 23 23 24 25 25 28 30 30 30 30 29 27 23 21 19 18 19 18 19 21 21 20 20 19 18 16 15 14 15 17 19 24 29 33 35 35 34 32 31 32 31 32 35 34 34 34 32 29 31 36 35 27 25 23 21 20 21
11 11 11 11 11 11 11 11 11 11 11 12 13 15 17 18 21 22 23 23 21 20 20 23 26 26 29 34 36 31 26 24 22 21 23 24 26 28 29 31 31 30 30 29 26 22 20 18 18 19 20 20 21 20 19 19 18 16 15 15 16 16 18 23 28 32 36 37 36 38 35 32 30 31 34 33 32 32 31 34 39 37 33 32 29 24 22 24
11 11 11 11 11 11 11 11 11 11 11 11 11 12 13 15 17 19 22 23 23 22 20 21 21 21 27 34 37 33 31 29 25 22 23 24 25 28 30 31 31 30 32 32 30 26 23 20 19 18 17 19 20 20 20 20 18 17 16 15 15 16 15 18 22 24 31 33 33 36 37 38 33 27 31 33 31 32 33 34 36 38 39 35 33 30 26 28
12 11 11 11 10 11 11 11 11 11 11 10 11 11 11 13 14 15 18 20 22 22 22 21 20 20 23 29 33 33 33 33 29 28 28 25 25 27 30 32 31 31 33 33 31 30 28 24 20 17 16 18 19 21 21 20 20 18 17 16 15 16 16 16 18 19 22 25 26 27 29 34 35 31 31 31 32 33 32 32 33 35 36 33 33 33 30 31
12 12 12 11 11 10 11 11 11 11 11 10 11 10 10 11 11 13 14 16 18 20 22 21 20 21 20 22 26 28 30 33 32 33 31 26 24 25 28 30 31 33 33 30 30 31 31 27 23 19 16 17 18 20 20 20 21 19 18 18 16 16 16 16 17 17 19 20 21 21 22 24 26 29 30 29 36 39 37 35 33 34 35 33 32 33 33 31
12 13 13 12 11 11 10 11 11 11 11 11 10 10 10 10 10 11 12 12 14 16 18 20 20 21 20 20 21 21 25 28 29 33 33 29 27 26 26 27 31 33 30 29 30 31 31 31 28 24 19 17 17 17 18 20 21 20 19 18 17 16 16 17 17 16 18 18 18 18 18 18 19 22 23 23 29 36 38 38 35 35 35 36 37 33 33 33
11 12 14 13 12 11 11 11 11 11 11 10 10 10 10 10 10 10 10 10 11 12 14 16 18 19 19 20 20 20 22 22 23 30 34 32 30 30 29 28 30 31 29 30 32 32 32 32 32 30 25 19 17 16 16 18 20 21 20 19 19 18 17 17 17 17 18 17 17 17 16 16 17 18 18 18 21 24 29 33 34 35 34 36 40 36 34 33
10 11 13 14 13 12 11 11 11 11 11 10 10 10 10 11 10 10 10 10 10 10 11 13 14 16 17 19 20 20 21 20 20 26 30 29 29 30 31 30 30 31 30 31 33 32 33 32 32 34 31 23 18 16 15 16 18 20 21 20 20 19 18 18 17 18 18 17 17 16 15 16 15 16 16 15 17 18 20 24 26 29 31 34 38 39 36 33
9 10 12 13 13 13 12 11 11 11 11 10 10 11 11 11 10 10 10 10 10 9 10 11 11 12 13 15 17 19 20 21 19 21 24 25 27 29 30 32 33 33 31 31 32 32 32 31 30 33 34 28 23 18 15 16 16 17 19 20 20 20 19 19 19 18 18 18 17 16 16 15 14 15 15 14 16 17 17 19 20 23 25 28 32 36 38 36
8 9 11 12 12 13 12 12 11 11 11 11 11 11 11 11 11 11 10 9 10 9 9 9 9 10 10 11 13 15 17 19 19 21 22 23 25 28 31 35 36 36 34 33 32 30 29 30 29 30 33 33 29 23 17 17 16 16 17 18 19 21 20 20 19 18 18 18 18 16 16 16 15 14 13 14 15 15 15 16 17 20 22 23 26 29 33 36
9 9 10 11 11 12 13 13 12 11 11 11 11 12 12 12 11 11 10 10 10 9 9 9 9 9 9 9 10 11 13 15 17 20 22 22 24 28 33 38 40 40 38 37 35 30 31 35 30 26 32 35 33 30 24 19 17 16 16 16 17 18 19 20 20 19 18 19 19 18 16 15 16 15 14 14 15 14 14 15 15 18 19 21 22 24 26 31
11 10 10 10 11 11 12 13 13 12 12 12 13 12 12 12 12 11 10 10 9 9 9 9 9 9 9 9 9 9 10 11 13 16 19 22 23 26 31 34 37 41 42 40 38 32 32 37 29 22 29 34 33 35 33 26 21 18 16 16 16 16 17 19 20 20 19 19 19 18 18 16 15 15 15 14 15 14 13 14 15 15 16 19 20 21 22 24
12 11 10 10 10 11 11 12 13 13 13 14 13 13 12 12 12 11 10 10 9 9 9 9 9 9 9 9 8 8 9 9 10 12 14 18 20 23 26 28 32 41 43 39 36 32 31 34 28 20 24 32 34 37 38 34 28 22 17 16 15 15 16 16 18 20 19 20 19 18 18 17 16 17 16 15 15 15 15 15 15 14 15 17 17 20 21 20
13 13 11 11 10 10 11 11 12 13 14 15 14 14 14 13 12 11 10 10 10 10 10 9 9 9 9 9 8 8 9 8 8 9 10 13 17 19 22 25 32 39 41 36 31 31 33 33 29 23 24 29 33 36 37 37 35 29 21 18 16 15 15 15 16 16 17 18 18 18 18 18 17 17 17 17 16 16 16 15 15 16 17 18 16 18 20 18
14 13 13 13 11 10 11 11 11 12 13 14 15 15 14 13 13 12 11 10 10 10 10 10 9 9 9 9 9 9 9 8 8 9 9 9 12 15 18 22 27 31 35 34 27 30 36 34 29 26 25 27 30 32 36 38 37 35 30 24 20 17 15 15 15 15 15 16 16 17 18 17 18 18 17 17 16 16 17 15 15 16 18 19 16 15 18 17
14 14 14 15 12 10 11 11 11 12 12 13 14 14 14 14 13 12 12 11 10 10 10 11 10 10 10 9 10 9 9 9 8 8 8 9 9 11 14 17 21 25 29 31 27 28 35 34 30 29 26 26 27 28 32 37 37 37 36 33 30 25 19 15 15 14 14 14 14 15 15 16 16 17 17 17 16 17 17 16 17 16 16 16 15 15 16 15
15 15 16 17 14 11 11 11 11 11 11 11 12 12 13 14 13 13 13 12 12 11 11 11 11 11 11 11 10 10 9 8 8 8 8 8 8 9 10 12 15 19 23 28 29 29 33 32 30 29 26 25 26 25 26 32 37 38 38 39 38 34 28 22 16 15 15 14 14 14 14 15 15 15 15 15 16 17 16 16 17 16 16 14 14 16 15 14
17 16 17 17 16 13 12 12 11 11 11 11 11 11 12 13 13 14 14 14 13 13 12 12 12 11 12 12 10 10 10 9 8 8 7 8 8 8 9 9 11 14 17 22 26 28 28 27 26 29 30 28 27 26 24 28 35 38 39 41 42 39 36 31 22 16 15 14 14 15 14 14 14 13 13 13 14 15 15 16 16 15 17 16 14 14 14 14
20 18 17 18 16 14 15 14 12 12 12 11 11 11 11 11 12 13 14 15 14 13 13 12 12 11 11 11 11 10 10 10 9 8 7 8 8 7 8 8 8 9 11 15 21 23 24 25 28 33 33 30 30 31 31 32 34 35 36 40 43 42 40 38 31 23 18 15 14 14 14 13 13 13 13 12 12 13 14 15 15 15 15 16 16 15 13 14
22 20 19 19 18 17 17 16 14 13 12 12 11 11 11 10 11 11 12 13 14 13 13 12 12 12 11 11 11 11 11 10 10 10 8 8 8 8 8 8 7 7 9 11 15 19 22 26 30 32 32 34 39 39 36 34 32 30 34 38 42 43 42 41 37 31 26 21 17 15 12 11 11 11 11 11 12 13 13 13 14 15 15 14 15 16 14 13
23 22 22 23 21 20 19 18 17 17 15 14 12 11 11 10 10 11 11 11 12 12 12 12 12 12 13 12 12 12 12 11 11 10 9 8 8 7 7 7 7 7 9 11 12 15 20 24 25 27 30 35 40 38 33 34 33 32 34 39 40 39 38 39 41 39 35 29 24 21 17 10 9 10 10 11 12 11 12 13 13 13 14 15 15 15 15 15
24 24 26 26 23 21 21 21 19 19 17 16 14 12 11 11 10 10 10 10 11 11 11 12 12 13 14 13 13 13 13 12 11 10 9 8 8 8 8 8 7 7 8 10 11 12 14 16 18 24 30 31 35 41 42 42 43 40 39 40 39 35 32 36 43 44 40 35 33 32 26 15 11 11 10 10 11 12 12 13 15 14 13 14 15 15 15 15
25 25 27 29 27 24 24 23 21 21 20 17 15 13 12 12 11 10 10 10 10 10 10 11 12 12 12 12 13 12 12 12 11 10 10 9 8 8 9 8 6 6 7 8 9 9 10 12 13 19 25 28 35 47 52 48 46 45 44 43 41 38 34 34 39 41 40 41 41 39 32 23 18 16 12 9 9 12 13 13 16 16 14 14 15 15 15 15
26 26 28 33 31 28 30 29 26 27 26 22 18 16 14 12 11 10 10 10 10 10 9 10 10 11 12 12 12 12 11 11 11 10 10 12 12 8 8 9 8 7 6 7 8 7 7 10 11 13 19 26 35 46 50 48 47 48 49 46 44 45 42 36 35 36 36 38 39 37 34 31 27 23 18 13 10 11 15 18 18 17 14 15 15 14 15 15
Wind_Speed
26 25 24 23 22 20 19 18 17 15 14 13 12 12 11 11 11 10 10 11 12 13 14 15 16 16 16 17 17 18 19 20 21 22 23 24 25 26 26 26 27 28 29 29 31 33 36 36 35 33 30 26 24 21 15 8 3 8 11 12 11 11 11 12 13 12 11 11 11 12 12 12 13 14 15 13 12 10 10 10 10 11 10 10 10 9 9 9
30 28 27 26 25 23 22 20 19 18 17 16 15 14 13 13 13 12 12 12 12 13 14 14 15 16 16 16 16 17 17 18 19 20 21 23 24 25 25 26 26 27 28 29 29 31 34 36 35 33 31 30 27 25 22 16 9 4 9 12 13 13 14 14 15 14 13 12 12 14 14 13 14 15 14 12 11 10 9 9 9 9 8 6 5 5 5 6
33 31 30 29 27 26 25 24 22 21 20 18 17 16 15 15 15 14 14 13 13 13 14 14 15 16 16 15 15 16 16 16 18 19 20 22 23 24 24 25 25 26 27 28 28 29 31 34 35 34 32 31 29 27 26 23 17 9 6 10 13 15 16 15 15 14 14 13 11 12 13 13 14 13 10 8 6 7 7 6 8 7 6 5 3 3 2 2
36 35 34 32 31 29 28 27 25 24 23 22 20 19 18 17 16 16 16 15 15 14 14 15 15 16 16 16 15 15 15 15 16 17 19 20 22 23 23 24 25 25 25 26 27 28 29 32 34 34 32 31 30 29 28 26 22 16 8 7 11 14 15 15 14 12 13 13 11 9 11 12 12 10 7 5 2 3 4 4 6 5 3 3 2 2 1 1
39 38 37 35 34 33 32 30 28 27 25 25 24 22 21 20 19 18 17 17 17 16 15 15 16 16 16 16 15 15 14 15 15 16 17 19 20 22 22 23 23 24 24 25 26 27 28 30 33 34 33 31 30 31 30 27 25 21 15 9 7 10 12 13 13 12 12 13 11 9 10 10 10 9 6 4 1 4 3 2 3 3 1 1 1 1 1 2
42 41 40 39 38 36 35 34 32 30 28 27 27 26 24 23 22 20 19 19 18 17 16 16 16 16 16 17 16 15 14 14 14 15 16 17 19 20 22 22 22 23 23 24 25 26 26 28 30 32 32 32 31 31 30 27 26 24 20 15 10 7 9 11 13 13 12 12 10 7 8 9 9 7 5 4 4 4 3 2 2 3 2 2 3 2 2 3
43 43 43 42 41 40 38 37 36 34 32 30 29 29 27 26 25 23 22 21 20 19 18 17 17 17 17 17 17 16 15 14 14 15 15 16 17 19 20 21 22 22 22 23 23 24 25 26 27 30 31 32 31 30 30 28 27 26 24 21 16 11 9 10 11 12 12 11 10 7 6 7 7 7 6 6 6 5 4 5 5 5 4 5 5 4 4 5
43 44 44 44 44 43 42 40 39 38 36 34 32 31 30 29 28 26 25 23 22 21 20 19 18 18 17 17 17 17 16 14 14 15 15 15 16 17 19 20 21 21 21 22 22 22 23 24 25 27 30 31 31 29 29 29 29 28 26 25 22 17 13 11 10 9 10 10 10 7 7 7 5 5 6 6 7 8 7 6 7 7 6 8 7 6 5 6
44 44 44 45 45 45 44 43 42 41 39 38 36 34 33 32 31 29 28 26 25 23 22 21 19 19 19 18 18 18 17 16 14 15 15 15 15 16 17 19 20 21 21 21 21 21 21 22 23 24 27 28 29 28 28 28 29 28 27 26 25 23 19 16 13 9 7 7 7 7 8 9 6 4 4 4 6 8 8 8 9 10 8 8 8 7 7 8
46 45 45 45 45 46 46 46 45 44 43 41 39 38 36 35 34 32 31 30 28 26 24 23 21 20 20 19 19 19 18 17 16 15 15 15 15 15 16 18 19 20 20 20 20 20 20 20 21 22 24 26 27 27 27 28 28 28 29 28 26 25 23 21 18 14 10 7 4 5 8 10 9 5 3 4 5 6 8 8 8 10 11 9 8 8 9 9
49 48 47 46 46 46 46 46 47 46 45 44 42 41 40 38 37 35 34 33 31 29 27 26 24 22 21 21 20 20 19 18 17 16 15 15 15 15 15 16 18 19 20 20 19 19 19 19 19 20 21 23 25 26 26 27 27 27 28 28 28 25 24 23 21 18 16 14 9 5 3 6 8 5 4 4 4 5 7 7 6 8 10 8 8 8 9 8
53 52 50 49 48 47 47 47 47 48 47 46 45 44 43 42 40 38 37 36 34 31 30 28 27 25 23 23 22 22 20 19 18 17 16 16 15 15 15 15 16 18 19 19 19 18 18 18 18 18 19 20 22 24 25 25 26 26 27 27 28 27 24 23 22 20 20 19 17 13 10 6 4 1 3 3 4 4 4 4 5 7 7 7 7 7 7 7
57 56 54 52 51 49 48 47 47 48 48 48 47 47 46 45 43 41 40 39 37 34 33 31 30 28 26 25 24 23 22 21 20 18 17 17 16 16 15 15 15 16 18 19 19 18 17 17 17 17 17 18 19 21 23 24 25 25 26 26 28 28 26 24 23 21 20 19 19 18 17 14 12 10 10 9 8 6 5 3 3 4 5 6 6 6 7 7
61 60 58 56 54 53 51 49 48 48 49 48 48 48 48 47 46 45 43 42 40 37 36 34 33 31 29 28 26 25 25 23 22 20 19 18 17 17 16 16 15 15 17 18 18 18 17 16 16 16 15 16 17 18 20 22 23 23 24 25 26 27 27 26 24 22 19 17 17 17 17 16 15 14 14 13 12 10 9 8 7 5 6 8 8 8 8 8
65 63 62 60 58 56 54 52 51 50 49 49 49 48 49 49 48 48 46 45 44 41 39 37 36 34 32 30 29 28 27 25 24 22 21 20 19 18 17 17 16 15 16 17 18 17 16 16 15 15 14 14 15 16 17 19 21 21 22 23 24 25 25 25 25 24 22 20 18 16 14 14 14 14 14 15 14 11 10 12 11 10 9 9 9 9 9 9
68 67 65 64 62 59 57 55 54 52 51 51 50 49 49 49 49 49 49 48 47 44 42 40 39 37 35 34 32 30 28 27 26 25 23 22 20 19 18 18 17 16 15 16 17 17 17 15 15 14 14 13 13 14 16 17 19 20 20 21 23 23 23 23 23 23 23 21 20 19 16 16 15 14 14 14 13 11 10 12 12 11 10 10 9 8 9 12
71 70 68 67 65 63 61 58 57 55 54 53 52 51 50 49 50 50 50 50 49 47 45 44 42 40 39 38 33 30 30 30 29 27 26 24 22 21 20 19 19 17 16 16 17 17 17 16 15 14 13 12 12 12 13 15 16 18 19 20 20 21 21 21 22 22 22 21 21 21 20 19 18 17 17 16 15 12 10 9 10 10 10 11 9 7 9 11
72 72 71 70 68 66 64 62 60 58 57 56 54 53 51 50 50 50 50 51 51 50 49 46 45 43 42 40 35 33 34 33 31 30 28 26 24 23 21 21 20 19 18 17 17 17 17 17 16 14 13 13 11 10 10 12 13 14 16 17 18 18 18 19 19 20 20 20 20 20 20 20 20 20 19 18 17 15 12 10 10 10 10 10 9 9 8 8
72 73 73 72 71 69 67 65 62 61 59 59 57 55 53 52 52 51 50 51 52 52 50 49 48 45 44 43 40 38 37 36 34 33 30 28 27 25 24 23 22 21 20 19 18 18 18 18 17 15 14 13 12 10 9 9 10 11 12 14 15 16 16 16 16 17 17 17 18 17 17 18 19 19 19 19 18 17 16 13 13 14 14 13 13 14 10 7
73 73 73 74 73 72 70 68 66 64 62 61 60 58 56 54 53 52 51 52 52 51 51 51 50 49 48 46 43 40 39 38 37 34 32 31 29 27 27 25 24 23 22 21 20 19 19 18 17 16 15 14 13 11 9 8 7 8 9 11 12 13 15 15 14 14 14 14 14 14 14 14 15 16 17 17 17 17 16 14 14 15 16 15 15 15 13 10
73 73 73 73 74 74 72 71 69 67 65 63 63 61 59 57 55 53 53 54 53 51 51 52 52 51 50 47 45 43 43 42 39 36 35 34 31 30 29 27 26 25 25 24 22 21 20 19 18 17 16 15 14 12 11 8 6 6 6 8 9 10 12 12 12 12 11 11 12 12 11 10 11 13 13 13 14 14 13 13 13 13 15 15 14 14 14 12
74 73 73 73 74 74 74 73 71 70 68 66 65 63 62 60 57 55 56 55 54 53 52 52 53 52 51 50 48 47 48 45 40 39 39 36 34 33 32 30 29 28 27 26 25 23 22 21 20 19 18 17 15 14 12 10 8 5 4 4 5 7 8 9 9 9 10 11 10 10 9 7 6 8 10 11 11 11 11 11 11 11 13 14 14 13 13 13
75 74 74 74 74 74 75 74 73 72 71 68 67 65 64 63 61 59 58 56 55 55 54 53 53 53 53 52 51 51 50 46 43 43 41 39 37 36 33 32 31 30 29 28 27 25 24 23 22 21 20 18 17 16 14 12 11 8 6 4 3 4 5 5 6 7 8 9 9 10 10 8 6 7 9 11 11 11 10 10 10 10 10 12 13 12 13 14
76 75 74 74 74 74 75 75 75 74 72 71 69 67 66 65 64 62 61 59 57 56 56 55 55 54 54 54 53 54 52 48 47 46 43 41 40 37 36 35 33 32 32 30 29 27 26 26 24 23 22 20 19 18 16 15 13 11 9 7 5 4 3 4 5 5 6 7 8 9 10 10 8 7 8 9 10 11 10 10 11 10 11 12 13 13 14 15
77 76 76 75 74 74 74 75 76 75 74 72 71 70 68 67 66 64 63 62 60 59 59 58 56 55 56 55 55 55 53 51 51 48 46 45 42 40 39 37 35 35 34 33 31 29 28 28 27 25 24 23 21 20 19 17 15 13 12 10 8 7 5 5 7 6 6 8 8 9 9 10 9 8 8 7 8 10 10 11 11 11 12 12 14 15 15 16
79 78 77 76 75 74 74 76 76 75 74 73 73 73 71 69 67 65 65 64 63 63 61 59 58 57 57 56 56 56 55 54 53 50 49 47 44 43 41 39 38 37 36 35 33 31 31 30 29 27 26 25 24 23 21 19 17 15 15 13 11 10 8 8 10 9 7 8 8 8 8 9 10 10 10 9 8 10 11 11 11 11 12 13 15 16 16 19
81 80 79 78 76 75 74 75 77 76 74 74 74 74 73 72 69 67 66 66 67 66 63 62 60 59 59 58 57 56 55 55 54 52 51 49 47 46 43 42 41 40 39 36 34 34 33 32 31 30 29 27 26 25 24 22 20 18 16 16 14 12 11 10 12 12 10 9 9 9 8 8 10 10 11 9 9 11 11 11 11 12 13 13 14 16 18 20
82 81 81 80 78 77 75 76 76 76 74 75 74 74 74 73 71 69 67 67 68 67 64 64 63 62 62 59 57 57 56 56 55 53 53 52 50 48 46 45 44 43 41 38 37 36 34 33 33 33 31 30 29 28 26 24 23 21 19 18 17 15 14 12 13 13 13 12 11 11 10 9 9 10 11 10 9 10 11 12 13 13 14 15 16 18 19 20
84 83 83 82 80 79 77 76 77 76 75 75 75 74 74 74 73 72 70 69 69 66 65 66 66 65 63 59 58 60 59 58 56 55 55 53 51 49 48 47 46 45 43 40 39 37 36 35 35 35 34 33 32 30 29 27 26 24 22 20 20 19 16 15 15 14 14 14 13 12 12 12 10 10 11 11 11 11 12 13 13 14 15 16 18 20 20 20
86 85 85 84 82 81 80 78 77 77 75 75 75 74 74 74 74 74 72 71 70 67 66 66 67 67 63 61 62 64 61 59 58 57 56 54 51 50 49 48 48 47 45 43 42 39 38 37 37 38 37 35 34 32 32 31 28 28 26 23 22 21 19 18 17 16 16 16 15 14 14 14 13 11 11 14 14 13 14 14 14 16 18 18 20 22 23 22
88 87 87 86 84 83 82 79 79 79 77 75 75 75 75 74 74 73 73 72 72 69 67 68 69 66 64 63 65 66 63 61 59 57 56 54 52 51 50 49 50 48 46 46 45 41 40 39 40 41 38 37 37 35 35 34 31 30 29 26 24 23 21 21 20 19 18 18 18 17 15 16 16 13 11 14 16 15 16 17 17 18 19 21 23 24 25 25
90 89 89 89 87 85 84 82 81 81 78 76 75 75 75 74 73 72 72 73 74 71 69 70 70 66 65 65 67 67 64 63 61 58 57 56 54 53 52 51 52 50 50 52 48 44 43 43 43 41 39 39 39 39 39 37 34 33 32 30 28 26 24 23 23 22 21 21 20 20 18 17 18 16 13 14 16 17 18 18 19 20 21 23 25 26 27 27
92 91 91 91 90 87 86 84 83 82 80 78 76 75 75 74 72 72 72 74 75 73 72 73 71 69 68 67 68 68 65 65 63 60 61 60 57 55 54 53 53 53 55 54 49 47 47 46 44 41 40 41 43 43 41 39 37 36 34 33 31 29 27 27 26 24 24 24 23 22 22 20 19 19 18 15 14 18 20 20 21 22 24 25 26 27 28 29
94 93 93 93 92 90 88 86 85 84 82 80 78 77 75 73 72 73 73 74 75 75 75 74 73 73 71 69 70 69 67 68 66 62 63 61 59 57 55 54 54 56 57 53 50 50 49 47 45 43 43 44 46 46 43 41 40 39 38 36 34 32 31 30 29 27 28 28 27 26 25 24 22 22 22 19 16 18 22 24 24 23 24 27 28 28 29 30
96 95 95 95 94 92 90 89 87 85 84 82 80 77 75 73 73 74 74 75 75 76 76 75 74 75 74 72 72 70 69 70 67 63 64 63 61 59 57 55 56 57 56 54 54 53 51 51 48 47 47 46 47 48 44 43 44 43 41 39 37 36 34 34 32 31 31 31 30 29 28 27 25 26 26 22 21 22 22 25 27 27 26 26 29 30 30 30
97 97 97 97 96 94 92 91 89 87 86 84 81 78 76 75 75 75 76 76 77 78 78 75 75 76 75 74 73 71 71 72 68 65 66 65 63 62 59 58 57 58 58 57 56 55 55 55 51 51 51 47 48 49 45 45 47 45 44 42 40 39 38 38 36 35 35 34 34 33 31 30 29 29 28 26 26 26 25 27 28 30 29 28 29 32 31 31
97 98 99 99 98 96 94 93 91 89 88 86 82 80 79 78 78 78 78 78 78 79 78 75 74 75 76 75 74 73 73 74 70 67 68 67 65 64 62 60 60 60 60 58 58 58 58 57 54 54 52 48 50 50 45 46 49 47 46 46 44 42 41 42 41 40 38 38 38 36 35 35 33 31 30 29 30 29 29 30 30 30 33 31 30 32 34 33
96 98 99 101 100 98 96 94 92 91 89 86 84 82 82 81 81 80 81 80 80 79 77 75 74 75 77 76 76 76 76 77 73 69 70 70 67 66 64 63 63 63 62 60 61 61 59 59 57 54 52 51 52 51 47 47 49 48 49 49 46 45 45 44 44 44 41 41 42 39 38 38 36 35 33 32 33 33 32 32 32 32 34 35 33 33 34 35
94 97 99 101 101 99 97 95 94 92 90 87 86 86 85 85 84 84 83 82 81 79 77 76 75 76 77 77 77 78 77 78 76 73 73 72 70 69 67 66 65 65 64 63 64 62 59 62 62 54 53 56 54 51 49 48 50 50 50 50 50 49 48 46 47 46 44 44 45 44 42 40 39 38 36 34 36 37 35 33 34 34 34 36 36 35 35 35
92 95 97 100 101 101 99 97 95 93 91 89 89 89 88 88 88 87 86 85 83 80 77 75 74 75 77 77 78 79 78 78 79 77 75 74 73 72 71 69 68 68 68 67 67 65 62 66 66 56 54 57 53 51 52 52 52 52 50 51 52 51 49 48 49 49 48 48 47 47 47 43 42 41 39 38 39 39 38 37 37 37 36 37 37 38 37 36
88 93 96 99 101 100 99 98 96 93 92 92 92 91 90 90 90 90 88 86 84 81 78 78 77 76 78 78 78 79 78 79 80 78 76 76 76 74 73 71 70 71 72 71 70 68 65 68 68 59 54 55 53 54 56 56 55 53 52 52 52 51 50 51 53 52 52 52 50 50 50 47 44 45 44 42 41 41 40 40 40 40 39 38 38 39 39 38
84 90 94 98 100 99 98 97 96 95 94 93 93 93 92 92 91 91 90 88 85 83 81 80 79 78 78 77 76 78 79 79 79 78 77 78 78 77 75 74 73 74 76 75 72 69 68 70 69 62 56 56 57 57 59 59 57 55 54 53 52 52 52 53 55 54 54 55 53 52 52 50 46 48 49 45 44 45 42 41 43 43 42 42 40 40 40 41
81 87 90 95 99 98 97 97 96 95 95 95 95 95 93 92 92 92 92 89 87 85 84 82 81 80 79 77 75 76 79 79 78 78 79 80 80 80 79 77 78 78 78 77 74 70 70 71 69 65 61 59 59 58 59 61 60 58 56 54 54 55 55 55 56 56 54 55 55 53 55 54 49 50 52 49 47 48 45 44 45 45 44 44 44 43 43 43
77 83 87 93 99 98 96 95 95 95 96 97 97 95 94 93 93 93 92 90 88 87 86 85 84 82 81 80 78 78 80 80 79 79 80 81 82 83 82 80 80 81 80 79 76 72 72 72 69 68 65 61 60 59 59 61 62 60 58 57 57 58 58 57 57 57 55 55 55 54 57 58 53 52 54 52 50 51 49 47 48 48 48 47 47 47 46 45
73 79 84 90 96 96 94 94 95 95 95 96 96 95 95 94 93 93 91 90 90 89 88 88 87 85 84 83 82 81 82 80 79 80 79 80 83 85 84 83 82 83 82 81 79 76 75 74 72 70 68 63 62 61 59 60 62 62 60 60 60 60 60 60 59 57 55 55 55 55 58 60 56 55 56 54 53 53 53 51 50 50 51 51 50 49 49 49
70 77 82 87 93 94 94 95 95 93 93 94 95 95 95 94 93 93 92 92 92 92 91 91 91 89 88 87 85 83 82 80 80 81 80 80 83 84 85 85 85 86 85 81 81 81 78 77 73 70 68 66 64 64 61 60 61 62 61 62 63 62 62 62 62 60 57 55 55 56 59 60 58 58 58 57 55 55 55 54 53 52 52 53 53 52 52 51
69 75 79 84 89 90 91 94 93 91 92 93 93 93 93 93 93 94 94 94 95 94 93 93 93 91 90 89 86 84 83 81 81 82 81 80 82 83 85 88 89 88 85 82 84 84 80 77 73 71 71 69 66 65 64 62 63 63 62 63 65 65 64 63 63 63 61 58 56 57 59 60 60 59 60 60 59 57 56 55 55 54 53 54 55 55 54 53
68 72 76 79 84 86 89 92 92 91 90 91 91 91 91 91 92 93 94 95 96 96 94 93 93 91 90 89 87 85 84 84 83 83 82 81 82 84 86 88 88 86 84 83 84 84 81 78 76 76 74 70 68 69 68 67 67 64 62 64 67 68 66 66 65 64 63 61 59 59 60 61 61 62 62 61 61 59 57 56 57 57 55 56 56 57 56 55
66 70 73 76 80 83 86 89 89 88 88 89 89 89 88 89 90 91 93 95 97 97 95 93 91 90 90 89 88 87 87 87 87 86 85 83 84 84 85 86 85 83 84 86 86 85 85 82 80 80 76 72 72 72 70 69 68 66 64 66 69 69 66 66 66 66 65 62 60 61 62 63 64 65 63 61 61 60 58 58 59 58 58 58 58 58 58 58
66 69 73 76 79 82 85 87 87 87 88 89 89 88 88 87 88 90 92 94 95 96 95 93 92 92 93 93 92 91 91 90 90 88 87 86 85 85 85 86 86 84 85 88 89 88 88 86 83 81 78 75 73 72 70 70 71 70 68 69 70 69 66 65 68 70 68 64 62 65 67 67 67 66 63 62 62 60 59 61 61 59 59 60 59 59 59 59
67 70 73 76 78 80 81 83 83 84 86 87 88 88 87 87 87 88 90 91 93 94 93 93 94 95 96 95 95 95 94 92 91 90 88 87 87 86 86 86 85 84 84 88 92 91 89 87 86 83 80 77 73 72 73 75 74 73 72 72 70 69 68 68 71 72 71 67 67 70 71 69 68 66 64 64 64 61 61 63 62 60 61 61 60 60 60 60
68 71 74 76 77 77 78 79 80 81 84 85 86 86 85 85 86 86 86 87 88 90 92 93 94 95 96 96 95 93 91 90 92 92 89 88 88 87 87 85 84 84 84 85 91 92 90 89 88 85 81 78 76 76 78 78 77 75 75 73 71 71 72 72 72 73 73 72 72 72 72 71 70 68 66 66 65 64 64 64 63 63 62 62 62 62 62 61
Wind_Direction
235 232 231 231 233 234 235 236 237 238 240 246 253 261 271 278 285 293 302 313 320 326 331 335 340 346 353 360 5 9 14 19 21 22 23 24 25 27 27 27 27 29 32 32 33 34 35 36 38 41 44 46 48 49 55 69 146 199 203 201 194 186 180 169 161 157 159 165 166 168 170 167 165 166 164 159 157 158 161 165 178 185 188 198 203 210 217 222
240 238 237 235 234 234 235 236 239 240 241 243 249 255 263 271 277 283 290 299 308 316 321 326 331 336 343 351 358 4 9 15 19 20 21 22 23 24 25 26 25 26 30 32 32 34 35 36 37 39 41 43 46 47 51 57 68 138 183 194 197 189 185 175 165 163 163 162 164 168 169 166 163 159 153 147 145 147 149 149 152 157 154 159 181 194 204 213
241 241 241 240 238 236 235 235 237 241 242 243 245 250 256 263 270 276 282 288 296 304 311 317 322 327 333 341 349 357 3 8 15 18 20 21 21 22 23 24 24 24 27 30 31 33 34 35 37 38 40 41 44 46 48 51 57 70 140 180 193 194 190 179 167 166 166 160 161 169 171 169 163 152 140 130 133 140 136 135 134 136 134 131 154 171 179 196
241 242 242 243 242 241 239 237 236 238 242 244 245 247 252 257 263 269 275 280 286 293 301 307 313 318 324 331 339 348 355 2 9 14 18 19 19 19 21 21 22 22 24 28 30 31 33 35 36 38 39 41 44 47 48 48 53 61 85 147 182 193 192 183 172 168 166 160 157 170 178 174 161 147 133 105 106 162 137 124 134 136 130 130 164 178 188 224
240 241 242 243 243 244 244 242 239 237 239 244 247 247 249 253 258 263 268 274 279 285 292 298 304 310 316 321 329 337 346 353 0 8 14 16 17 17 18 19 20 20 22 25 29 30 31 33 35 37 38 40 43 47 49 49 52 56 65 93 145 178 186 184 178 173 171 164 158 171 186 180 164 155 154 137 189 209 187 153 146 176 216 168 213 221 249 284
240 241 241 242 243 244 244 245 244 241 238 240 246 248 248 251 254 258 263 268 273 278 284 290 296 302 307 312 318 326 335 343 350 359 7 13 15 15 16 17 17 18 19 22 27 28 30 32 33 35 37 39 41 45 48 50 53 54 57 66 88 132 166 178 179 179 176 171 163 176 198 194 182 177 182 200 236 240 223 244 255 256 271 288 273 265 274 292
242 241 241 242 242 243 244 245 246 246 243 240 242 246 249 250 252 255 258 262 267 272 277 282 288 293 299 304 309 316 324 332 339 347 358 6 10 13 13 13 14 16 16 18 23 26 29 31 32 34 36 38 40 43 47 49 53 55 55 59 68 88 124 151 166 175 179 178 173 182 210 212 202 202 215 234 249 269 286 280 286 291 289 293 292 292 298 303
244 243 242 242 242 242 243 243 245 246 247 244 242 244 247 248 251 253 255 258 261 266 270 275 280 285 290 296 301 307 312 320 329 336 346 356 3 9 10 10 11 13 14 15 18 22 26 29 31 32 34 37 39 41 44 47 51 54 55 57 60 68 84 103 120 148 169 178 180 188 213 220 216 221 239 265 270 276 291 286 289 295 291 297 308 309 310 316
246 245 244 243 243 242 242 243 243 245 246 247 246 245 245 246 249 251 253 255 257 260 263 268 272 277 283 287 292 298 304 310 318 326 333 344 354 2 7 7 7 9 10 12 13 17 22 26 29 32 33 35 38 40 43 46 49 52 55 56 58 63 68 74 82 97 126 158 178 194 211 214 217 232 245 272 283 285 289 280 284 295 292 299 314 308 309 320
248 247 247 246 244 243 242 242 243 244 245 246 246 247 246 245 247 249 251 252 254 256 258 262 265 270 275 279 284 289 295 302 308 316 323 331 342 351 0 3 4 5 6 8 9 11 16 22 27 31 33 33 35 38 41 45 46 49 54 55 58 63 67 69 71 74 77 90 127 193 214 215 218 233 240 245 275 297 301 295 287 290 290 292 300 298 305 320
248 248 248 247 246 245 244 243 242 243 244 245 245 246 247 247 246 247 249 250 251 253 255 257 260 264 268 272 277 281 287 293 299 306 312 320 329 338 349 357 0 1 1 3 5 7 9 15 21 27 32 33 34 35 39 44 46 47 52 55 58 62 65 66 68 70 68 69 77 94 166 200 210 230 255 269 291 295 299 310 300 291 295 298 300 298 304 315
248 248 248 247 247 247 246 244 243 242 242 243 244 245 246 247 247 247 248 249 249 250 253 254 256 258 261 266 270 274 279 284 290 297 303 310 318 327 337 346 353 356 357 358 359 2 4 7 14 21 27 31 35 35 36 43 46 47 50 54 58 60 62 62 65 68 66 65 66 69 75 93 120 87 344 357 353 321 303 303 305 306 316 324 316 308 313 314
248 248 248 247 247 247 247 245 244 243 242 242 242 243 244 246 247 247 248 249 249 248 250 252 254 255 257 260 264 269 274 278 282 288 294 300 308 316 325 334 343 349 352 352 354 357 359 1 6 13 21 26 34 36 36 40 45 47 49 51 55 58 59 59 61 64 64 60 57 59 62 61 58 47 38 49 55 31 15 1 323 317 332 344 334 329 337 330
247 247 247 247 247 246 246 246 245 244 243 241 241 242 243 244 245 246 247 248 249 248 249 250 252 253 254 256 260 264 267 270 275 280 286 291 299 306 314 323 331 340 345 347 348 351 354 356 359 4 12 19 27 33 36 40 43 45 48 51 55 56 57 57 57 60 64 63 57 53 53 50 47 43 41 49 54 44 33 34 22 9 10 8 357 354 358 349
245 246 246 246 246 246 246 245 245 245 244 242 241 240 241 242 243 244 246 248 249 248 248 249 250 252 253 254 255 258 262 266 270 274 279 284 290 297 304 311 319 328 337 340 342 345 348 351 353 356 2 12 18 26 33 38 42 44 46 51 54 56 57 56 56 56 60 63 60 55 51 48 43 38 38 43 48 43 32 32 24 16 20 13 359 360 7 7
244 244 245 245 245 245 245 245 245 245 245 244 242 240 240 241 241 243 244 246 248 248 248 249 249 250 251 252 252 255 261 264 267 270 273 277 282 288 295 301 309 317 325 331 336 339 341 344 347 348 352 2 10 19 27 33 38 42 45 48 53 56 57 58 57 57 57 58 58 59 56 51 46 40 38 42 48 44 29 27 20 12 15 10 2 0 8 16
243 243 243 244 244 244 244 244 244 244 245 244 243 241 240 240 240 241 242 244 246 248 248 248 249 249 250 251 253 256 259 260 262 265 267 271 276 281 287 292 299 306 313 321 327 332 334 336 340 342 344 350 0 10 22 30 35 38 42 46 51 54 55 57 58 57 57 57 56 58 57 55 52 50 49 48 52 53 43 36 26 15 10 10 11 5 8 20
243 242 242 243 243 243 243 243 243 243 244 244 244 243 241 240 240 240 241 242 244 246 247 248 248 249 251 253 253 252 253 254 257 259 262 266 271 275 280 284 290 296 303 310 316 322 326 329 332 334 335 340 349 356 11 25 33 37 40 45 49 52 54 55 56 57 57 57 56 56 57 57 55 54 55 54 56 59 55 52 47 39 32 30 35 30 29 33
243 242 242 242 242 242 242 242 241 241 242 243 244 244 242 241 240 240 240 241 243 244 246 247 248 248 249 250 249 248 250 252 254 257 260 264 267 271 274 278 283 288 294 300 306 311 316 322 324 327 328 330 336 342 352 11 25 33 38 43 46 48 52 52 53 55 55 55 56 57 58 58 56 55 54 55 56 57 56 54 51 49 45 45 47 45 47 47
243 243 242 241 241 241 241 241 241 240 241 242 243 243 243 242 241 240 240 241 241 242 244 246 247 248 248 249 250 251 252 252 253 256 259 261 263 266 269 272 276 281 286 291 297 301 306 312 316 319 320 322 325 328 335 349 9 24 33 41 44 44 46 47 47 49 51 52 52 53 57 58 55 53 51 52 52 51 53 51 44 43 43 44 46 45 45 45
242 242 242 241 241 241 241 240 240 240 239 240 241 242 242 242 241 241 241 241 241 241 242 244 245 247 248 249 251 251 251 251 252 255 256 257 260 262 265 268 272 275 279 283 289 292 296 301 307 310 313 314 315 317 321 327 338 3 23 35 42 43 42 42 43 42 41 43 45 45 47 53 54 49 46 44 42 44 45 45 41 36 35 37 39 39 36 34
241 241 241 241 241 240 240 240 240 240 239 238 239 240 241 242 241 241 241 241 242 242 241 242 244 245 247 248 248 249 250 250 251 253 254 255 257 259 262 265 268 271 274 277 281 285 288 292 298 302 305 307 308 308 310 312 314 321 345 14 38 44 41 35 33 35 33 31 33 32 30 32 35 38 34 26 22 25 28 30 31 29 27 27 31 31 23 15
241 240 240 240 241 241 240 240 239 239 239 238 238 238 239 240 241 240 240 241 241 242 242 242 243 244 245 247 247 249 250 250 251 252 253 254 255 258 260 262 264 267 270 272 275 279 281 285 289 294 297 300 301 301 302 303 301 300 303 319 354 23 36 28 18 24 28 24 22 20 19 11 356 3 9 7 6 9 14 16 16 18 16 16 18 17 12 6
241 240 239 239 239 240 240 240 239 238 238 238 238 238 238 238 239 239 240 240 241 242 243 242 242 243 244 245 246 248 249 250 250 250 252 253 254 256 258 259 262 264 266 268 271 273 276 278 282 286 290 293 295 295 296 295 294 296 294 293 301 317 348 357 352 6 16 11 12 13 11 4 357 350 347 353 360 2 6 10 14 14 10 12 10 5 5 5
241 240 239 238 238 238 239 240 239 238 238 238 238 238 237 237 238 238 239 240 240 241 242 242 242 242 243 244 245 247 248 248 248 249 250 251 252 254 255 257 260 261 263 264 267 270 271 272 275 279 282 285 289 290 291 291 292 293 292 291 291 291 302 318 320 337 358 355 357 4 0 354 352 341 332 341 352 353 357 4 10 12 10 13 9 4 2 358
241 240 239 239 238 237 237 239 239 238 238 237 237 238 238 237 237 237 238 239 239 240 241 242 242 243 243 244 244 245 246 247 248 248 249 250 251 252 254 255 257 259 260 262 265 266 266 267 269 273 276 279 283 285 286 287 288 288 288 289 289 288 290 296 303 311 330 336 336 344 347 341 335 330 334 344 335 327 339 352 357 359 3 6 4 3 357 352
241 240 239 238 238 237 236 237 238 238 238 237 237 237 238 238 237 236 237 237 238 239 240 241 242 243 243 243 244 245 246 247 247 248 249 249 249 250 252 253 255 257 258 260 262 262 262 263 265 267 270 273 276 279 281 282 284 284 285 285 283 285 287 288 294 296 303 310 312 319 325 326 324 321 326 331 317 310 319 330 338 348 355 355 355 354 352 352
240 240 240 239 238 237 236 236 237 237 237 237 237 237 237 238 237 237 236 236 238 238 239 240 241 242 243 243 245 246 245 246 246 247 247 247 247 248 250 251 253 255 256 257 259 260 261 261 261 263 265 267 269 273 276 278 280 280 281 281 281 281 282 284 286 290 295 295 297 302 302 304 312 313 313 311 305 307 310 315 325 336 343 344 345 347 347 349
240 240 239 239 238 237 236 236 237 236 235 236 236 236 237 237 237 237 236 237 238 238 238 239 240 241 242 243 245 245 244 244 245 245 246 247 247 248 249 250 252 254 255 256 257 259 260 259 259 260 260 261 265 268 271 273 275 277 277 278 280 280 279 280 280 284 291 291 293 297 293 290 290 297 304 301 297 299 303 310 318 324 327 333 337 338 339 341
239 239 239 238 237 237 236 235 236 236 235 235 235 236 236 236 236 237 237 237 237 237 237 238 239 241 241 242 244 245 245 245 245 245 246 247 247 248 248 250 251 252 254 255 256 256 257 259 258 256 256 258 261 264 266 268 270 272 273 274 275 277 278 278 278 280 285 288 290 292 290 288 282 280 291 294 293 297 302 306 310 315 319 323 327 329 330 331
237 237 238 238 237 236 236 235 235 236 235 234 234 234 235 235 235 236 236 237 237 236 236 238 239 240 240 240 242 245 245 245 245 246 247 247 247 248 248 249 251 252 254 255 254 254 255 256 255 254 255 256 258 260 261 263 266 267 270 272 272 273 275 275 277 278 279 282 285 286 286 288 284 277 277 285 291 295 300 304 305 309 314 318 319 321 324 325
236 236 237 237 237 236 236 235 235 235 235 234 234 234 234 234 235 235 235 235 236 235 234 236 238 238 238 238 241 243 244 245 245 245 247 247 246 246 247 247 249 250 251 252 251 251 252 252 253 255 256 256 256 257 258 260 262 263 266 269 269 271 272 273 275 276 277 278 280 281 283 285 286 286 281 281 288 292 293 297 302 304 306 310 313 316 320 322
236 235 235 236 236 235 235 235 234 234 234 234 233 233 233 233 234 234 234 234 235 234 233 234 236 236 236 237 239 241 242 244 244 244 245 245 244 245 245 246 247 248 249 250 250 251 251 252 254 256 256 255 255 255 256 258 260 261 263 265 267 268 270 271 273 275 277 278 278 279 281 282 285 289 288 286 291 296 295 294 297 301 304 306 310 313 315 318
235 234 234 235 235 235 234 234 234 234 234 233 233 233 233 233 232 233 233 233 234 234 233 233 234 235 236 236 237 239 240 242 243 243 244 246 246 246 246 247 248 249 250 251 252 252 252 253 254 254 254 253 254 255 255 257 258 259 260 262 264 266 267 269 271 273 275 276 277 279 280 282 285 287 288 292 295 296 298 299 297 297 302 305 308 310 312 315
233 233 233 234 234 234 233 233 233 233 233 233 232 232 232 232 232 232 232 232 233 233 233 233 233 235 235 236 237 238 239 241 242 242 243 245 245 246 246 247 248 250 251 251 252 252 252 252 252 253 253 252 253 255 255 256 257 257 259 260 262 263 264 266 269 270 272 274 276 277 280 282 285 285 287 292 294 292 295 297 298 298 300 304 306 307 308 310
232 232 232 233 233 233 232 232 233 232 232 232 232 231 231 231 231 231 231 232 232 233 233 232 232 234 235 235 236 237 239 241 241 240 242 244 244 245 245 246 247 249 250 250 250 251 251 251 250 251 251 251 253 254 254 255 256 257 258 259 260 262 263 264 266 267 269 271 273 275 279 280 282 284 287 291 292 292 293 292 295 299 301 303 304 304 305 307
230 230 231 232 232 232 232 232 232 232 232 232 231 230 230 230 230 230 231 231 231 232 233 232 232 234 235 235 236 236 238 240 240 239 241 243 244 245 245 246 246 248 249 249 250 250 250 250 249 250 251 251 252 254 254 255 257 257 258 258 259 261 262 263 264 264 266 269 271 273 276 277 279 281 285 289 289 289 291 291 293 297 299 300 301 302 304 306
229 229 230 231 231 231 231 231 231 231 231 231 231 230 229 229 229 230 230 231 231 232 232 232 232 233 234 235 235 235 236 238 239 238 240 241 242 243 244 244 246 247 248 249 249 249 251 252 250 249 251 251 250 253 253 254 256 258 257 258 259 260 260 261 263 264 266 267 269 271 272 274 278 280 282 285 286 286 289 291 293 295 296 297 298 300 302 305
228 227 228 230 230 230 230 230 230 230 231 230 230 229 228 228 229 229 230 231 231 232 232 232 232 232 234 234 235 235 235 237 238 237 238 240 240 241 242 243 244 246 247 248 249 249 250 252 251 247 248 250 250 252 253 254 256 257 257 258 259 259 259 261 263 265 265 266 268 269 270 272 275 278 281 282 282 284 287 290 290 291 293 295 296 298 300 302
228 227 227 229 229 229 229 230 230 230 230 229 229 229 228 228 229 229 230 230 231 231 231 232 232 233 234 234 235 236 236 237 237 236 237 238 239 240 241 241 242 244 246 246 247 248 247 250 250 246 245 249 250 252 254 253 254 255 256 257 258 259 261 261 263 264 265 266 266 268 269 270 273 276 278 279 280 283 286 287 287 288 290 292 294 296 297 299
228 226 226 228 228 228 229 229 229 229 229 229 229 229 228 228 229 230 230 230 231 231 231 231 231 232 233 234 234 236 236 236 238 237 237 238 239 239 240 242 242 243 245 245 245 247 246 248 250 248 245 248 249 251 252 252 252 253 254 256 258 260 261 261 262 263 265 266 266 267 268 269 272 274 275 276 278 280 283 286 287 288 289 289 291 293 294 295
229 227 226 227 228 228 228 228 228 228 228 228 229 229 228 228 229 230 231 230 231 231 231 231 231 232 233 235 235 237 237 237 237 238 237 238 239 239 240 241 242 242 244 245 245 246 247 248 250 250 247 246 247 248 250 252 252 253 254 255 258 260 260 260 261 261 263 265 266 268 269 270 271 272 274 275 276 277 279 282 284 286 288 288 289 289 290 292
229 227 225 227 228 227 227 227 227 227 227 228 228 228 228 228 229 229 230 231 230 231 231 232 232 231 232 234 234 236 238 238 237 237 237 238 238 239 239 240 241 242 244 245 245 245 247 249 250 250 248 247 247 247 249 252 253 253 255 256 257 258 259 259 261 261 262 264 266 268 270 271 270 271 273 273 275 276 277 279 280 282 284 286 287 287 288 290
229 227 225 226 227 226 226 227 227 227 227 227 228 228 228 228 229 229 230 231 230 230 231 232 232 232 232 233 233 234 236 237 236 236 237 238 238 238 239 239 240 242 243 245 246 245 246 248 250 250 249 248 248 247 248 251 254 254 255 256 257 259 259 260 260 261 262 264 266 268 271 272 270 270 272 272 274 275 276 277 279 281 282 283 285 287 287 288
229 228 225 226 227 226 225 226 226 227 227 228 228 228 228 229 229 230 230 231 230 230 230 231 232 232 233 233 233 234 235 236 236 236 236 237 238 238 238 239 240 242 243 245 246 246 246 247 248 249 250 250 250 250 249 250 252 254 254 255 256 258 260 261 261 262 263 264 267 268 270 271 272 271 271 272 273 274 275 276 277 279 281 282 284 286 287 288
230 228 226 226 227 226 225 226 226 227 227 228 228 228 228 228 229 229 230 230 230 230 229 230 230 231 232 232 233 234 235 236 237 237 236 237 238 239 239 239 239 241 242 243 246 246 246 247 248 250 252 252 251 252 251 250 252 254 255 256 256 257 258 260 261 261 261 263 265 267 269 271 272 273 273 273 273 274 275 276 276 277 279 281 283 284 286 287
229 228 226 225 226 225 225 226 226 226 227 228 228 228 228 228 228 229 229 229 230 230 229 229 230 230 231 233 233 234 235 236 238 239 238 238 239 239 239 239 239 240 241 242 245 246 247 248 249 249 251 251 252 253 254 253 252 252 254 256 257 258 257 258 260 261 261 262 262 265 268 271 271 272 273 274 273 273 275 277 278 279 279 281 283 283 285 286
229 228 226 226 226 225 225 225 226 226 227 229 229 228 228 228 228 228 229 229 230 230 229 229 230 230 232 233 234 235 235 236 237 239 238 238 239 239 240 241 241 241 241 242 244 247 248 248 248 249 249 250 252 253 253 253 254 254 254 256 258 258 258 259 259 261 262 263 263 264 266 268 270 271 271 272 273 274 276 278 279 280 281 282 282 283 284 286
227 226 225 224 224 224 224 225 225 225 227 228 229 229 228 228 228 228 229 229 230 230 230 229 230 230 231 232 233 235 236 236 237 238 237 237 238 239 240 242 242 242 241 242 243 245 246 246 246 247 248 249 250 252 253 255 256 257 256 257 258 258 258 260 261 261 261 262 264 265 266 266 266 267 269 271 273 275 277 278 278 280 282 282 282 283 284 284
225 224 223 223 223 222 223 223 223 224 225 226 228 228 228 228 228 228 228 229 230 230 230 230 229 229 230 230 231 232 233 235 236 237 237 238 238 239 239 240 241 240 240 241 242 243 244 246 246 247 248 248 250 253 256 257 257 257 257 257 258 259 259 260 262 262 261 261 263 264 264 264 264 265 268 270 271 273 276 276 277 279 281 281 282 283 283 284
223 221 221 222 222 221 222 223 223 224 225 226 227 228 228 228 228 228 229 229 229 230 230 230 230 229 230 230 230 231 232 234 236 236 237 239 239 239 240 241 242 242 241 240 241 242 243 245 246 246 247 248 249 251 254 254 255 256 256 256 258 260 260 259 259 261 261 260 260 261 261 262 264 265 268 269 271 273 274 276 277 278 280 280 281 282 282 284
222 220 219 220 220 219 220 221 221 222 223 225 226 228 228 229 229 229 229 229 230 230 230 230 230 230 231 230 231 232 233 235 237 237 237 238 239 240 241 242 244 245 244 242 242 243 243 244 246 246 247 247 248 249 251 253 253 254 256 256 257 258 258 258 259 260 260 259 259 260 262 264 264 265 267 269 271 272 273 274 277 278 278 279 280 281 282 283